Regional Weather Roundup
Issued by NWS

Home | Current Version | Previous Version | Text Only | Print | Product List | Glossary Off
Versions: 1 2 3 4 5 6 7 8 9 10 11 12 13 14 15 16 17 18 19 20 21 22 23 24 25 26 27 28 29 30 31 32 33 34 35 36 37 38 39 40 41 42 43 44 45 46 47 48 49 50

000
ASUS43 KMPX 221610
RWRMN
WEATHER ROUNDUP FOR MINNESOTA
NATIONAL WEATHER SERVICE TWIN CITIES/CHANHASSEN MN
1000 AM CST WED NOV 22 2017


NOTE: "FAIR" INDICATES FEW OR NO CLOUDS BELOW 12,000 FEET WITH NO
SIGNIFICANT WEATHER AND/OR OBSTRUCTIONS TO VISIBILITY. N/A MEANS
CURRENT SKY AND/OR WEATHER CONDITIONS ARE NOT AVAILABLE.

MNZ060>063-068>070-221700-
   Twin Cities Metro

CITY           SKY/WX    TMP DP  RH WIND       PRES   REMARKS
TWIN CITIES    PTSUNNY   21  12  68 S7        30.30F WCI  12
ST PAUL        MOSUNNY   20  12  71 S10       30.32F WCI   9
CRYSTAL        MOSUNNY   21  11  65 S12       30.29S WCI   9
BLAINE         PTSUNNY   21  14  73 S10       30.28F WCI  10
LAKEVILLE      CLOUDY    18  12  79 S8        30.30R WCI   7
EDEN PRAIRIE   MOSUNNY   20  12  71 SW10      30.29F WCI   9
SOUTH ST PAUL  SUNNY     22  12  67 SW12      30.30S WCI  10
LAKE ELMO      FAIR      23  16  74 SW10      30.30S WCI  12
$$
MNZ001>005-007-008-013>017-022>024-027-028-221700-
   Northwest Minnesota

CITY           SKY/WX    TMP DP  RH WIND       PRES   REMARKS
BEMIDJI        CLOUDY    14  10  83 S9        30.11F WCI   1
HALLOCK        LGT SNOW  16  12  86 S15       30.04F WCI   1
ROSEAU         LGT SNOW  16  10  79 S12       30.06F WCI   3
WARROAD        LGT SNOW  14  10  85 SW7       30.07F WCI   4
THIEF RVR FALL LGT SNOW  14  11  87 S15       30.09F VSB 1   WCI  -1
CROOKSTON      LGT SNOW  18  12  79 S15       30.10F WCI   3
FOSSTON        SNOW      12   9  85 S16G22    30.10F VSB 1/2 WCI  -4
DETROIT LAKES  CLOUDY    19  12  73 S13       30.11F WCI   7
MOORHEAD       CLOUDY    18  10  73 S17       30.12F WCI   2
PARK RAPIDS    CLOUDY    15  10  80 S9        30.13F WCI   3
MAHNOMEN       LGT SNOW  15  11  85 S16       30.10F WCI  -1
$$
MNZ006-009>011-018-025>026-221700-
   North Central Minnesota

CITY           SKY/WX    TMP DP  RH WIND       PRES   REMARKS
BAUDETTE       CLOUDY    13   8  81 S8        30.09S WCI   2
FLAG ISLAND    CLOUDY    14   9  79 SW14      30.06F WCI  -1
INTL FALLS       N/A     11   8  88 VRB3      30.12S
WASKISH        CLOUDY    14  10  85 SW7       30.11S WCI   4
BIG FORK       CLOUDY    16  12  86 S6        30.13S WCI   7
LONGVILLE      CLOUDY    16  12  86 S9        30.15F WCI   4
GRAND RAPIDS   CLOUDY    15  12  88 S8        30.18F WCI   4
CRANE LAKE     CLOUDY    10   9  92 S3        30.17F
ORR            CLOUDY    10   9  92 S3        30.11F
COOK           CLOUDY    12  10  92 SE3       30.15F
WALKER         CLOUDY    14  10  82 S12       30.12F WCI   0
$$
MNZ012-019>021-037-221700-
   Northeast Minnesota

CITY           SKY/WX    TMP DP  RH WIND       PRES   REMARKS
DULUTH         CLOUDY    15  11  83 SW9       30.18F WCI   3
ELY            CLOUDY    12   9  85 SW5       30.15F WCI   4
HIBBING        CLOUDY    13  10  88 VRB3      30.16F
EVELETH        CLOUDY    14   9  79 S8        30.17F WCI   3
DULUTH HARBOR  CLOUDY    19  14  79 SW10      30.25F WCI   8
TWO HARBORS    CLOUDY    21  12  68 SW5       30.19F WCI  15
SILVER BAY     CLOUDY    18  10  73 CALM      30.18F
GRAND MARAIS     N/A     22  15  75 W9        30.21F WCI  12
G MARAIS ARPRT CLOUDY    16   9  73 W6        30.12S WCI   7
$$
MNZ029>031-032-039>041-046>048-054>057-064-221700-
   West Central Minnesota

CITY           SKY/WX    TMP DP  RH WIND       PRES   REMARKS
FERGUS FALLS   CLOUDY    18  12  79 S18       30.17F WCI   2
WHEATON        MOSUNNY   21  12  68 SE12      30.16F WCI   9
MORRIS         CLOUDY    19  12  73 S15       30.18F WCI   5
ALEXANDRIA     CLOUDY    18  13  80 S14       30.18F WCI   4
ELBOW LAKE     FAIR      18  12  77 S14       30.17F HAZE    WCI   5
WADENA         CLOUDY    16  10  79 S9        30.15F WCI   4
GLENWOOD       CLOUDY    18  12  79 S14       30.19F WCI   4
APPLETON       MOSUNNY   21  12  68 S8        30.21F WCI  12
BENSON         CLOUDY    19  12  73 S10       30.22F WCI   8
ORTONVILLE     CLOUDY    19  12  73 MISG      30.18F
MADISON        MOSUNNY   23  16  74 S12       30.21F WCI  12
WILLMAR        FAIR      21  16  79 S5        30.24F WCI  15
$$
MNZ033>034-036-042>043-049>051-058-059-221700-
   Central Minnesota

CITY           SKY/WX    TMP DP  RH WIND       PRES   REMARKS
ST CLOUD       MOSUNNY   19  13  77 S13       30.25F WCI   6
SAUK CENTRE    FAIR      17  12  80 S10       30.21F WCI   5
PAYNESVILLE    CLOUDY    19  14  81 S9G16     30.24F WCI   8
AITKIN         CLOUDY    18  10  73 S10       30.18F WCI   6
PINE RIVER     CLOUDY    14  10  85 S5        30.19F WCI   6
BRAINERD       CLOUDY    17  12  80 S9        30.20F WCI   6
STAPLES        CLOUDY    16  12  86 S9        30.17F WCI   4
LITTLE FALLS   CLOUDY    19  10  68 S12       30.23F WCI   7
LITCHFIELD     MOSUNNY   21  16  79 S6        30.25F WCI  14
BUFFALO        CLOUDY    20  13  73 S9        30.29S WCI   9
MAPLE LAKE     CLOUDY    21  15  78 S8        30.28S WCI  11
HUTCHINSON     PTSUNNY   21  14  74 S10       30.28F WCI  10
$$
MNZ037-044-045-052-053-221700-
   East Central Minnesota

CITY           SKY/WX    TMP DP  RH WIND       PRES   REMARKS
PRINCETON      CLOUDY    19  16  86 S7        30.27R WCI  10
MORA           CLOUDY    18  12  79 SW7       30.27R WCI   8
CAMBRIDGE      MOSUNNY   21  10  63 S8        30.28R WCI  12
RUSH CITY      MOSUNNY   18  14  86 S7        30.28R WCI   8
MOOSE LAKE     CLOUDY    19  14  79 S6        30.21S WCI  11
HINCKLEY       FAIR      19  16  86 S8        30.25S WCI   9
CLOQUET        CLOUDY    16  10  79 SW6       30.20S WCI   7
MCGREGOR       CLOUDY    19  18  93 S9        30.20F WCI   9
$$
MNZ071>073-080-081-089-090-097-098-221700-
   Southwest Minnesota

CITY           SKY/WX    TMP DP  RH WIND       PRES   REMARKS
MONTEVIDEO     MOSUNNY   21  12  68 SW10      30.23F WCI  10
GRANITE FALLS  MOSUNNY   24  15  68 S14       30.25F WCI  12
CANBY          CLOUDY    26  14  62 SW10      30.20F WCI  15
MARSHALL       CLOUDY    23  12  62 S16G22    30.22F WCI  10
REDWOOD FALLS  SUNNY     22  11  62 S13       30.26F WCI  10
OLIVIA         MOSUNNY   21  14  73 S10       30.25F WCI  10
PIPESTONE      MOSUNNY   21  10  63 SW16G23   30.19F WCI   7
WINDOM           N/A     23   7  50 S12       30.24F WCI  12
WORTHINGTON    CLOUDY    22  11  62 S17       30.23F WCI   8
JACKSON        SUNNY     23  12  63 S16       30.27F WCI  10
SLAYTON        MOSUNNY   22   8  55 S21       30.22F WCI   6
$$
MNZ065>067-074>077-082>085-091>093-221700-
   South Central Minnesota

CITY           SKY/WX    TMP DP  RH WIND       PRES   REMARKS
MANKATO        SUNNY     19  12  74 S9        30.31F WCI   8
NEW ULM        SUNNY     21  10  63 CALM      30.28F
ST JAMES       CLOUDY    21  12  68 S12       30.31F WCI   9
FAIRMONT       SUNNY     21  13  71 S14       30.31S WCI   8
GLENCOE        CLOUDY    21  15  77 S10       30.29S WCI  10
FARIBAULT      CLOUDY    21  12  68 S10       30.30S WCI  10
OWATONNA       CLOUDY    21  16  79 S10       30.29F WCI  10
WASECA         SUNNY     21  14  73 S12       30.32S WCI   9
ALBERT LEA     SUNNY     21  12  68 S7        30.29F WCI  13
$$
MNZ078>079-086>088-094>096-221700-
   Southeast Minnesota

CITY           SKY/WX    TMP DP  RH WIND       PRES   REMARKS
ROCHESTER      SUNNY     21  14  74 S9        30.29F WCI  11
RED WING       CLOUDY    23  10  58 S8        30.31F WCI  14
STANTON        CLOUDY    22  15  72 S9        30.29F WCI  12
DODGE CENTER   SUNNY     19  14  79 S10       30.28F WCI   8
WINONA           N/A     23  12  63 S3        30.36F
AUSTIN         SUNNY     21  14  73 S8        30.29F WCI  12
PRESTON        SUNNY     20  11  68 S7        30.32F WCI  11
$$
ABBREVIATIONS USED IN REMARKS
   TC - TEMPERATURES IN CELSIUS
  WCI - WIND CHILL INDEX
   HX - HEAT INDEX
  VSB - VISIBILITY
$$




USA.gov is the U.S. government's official web portal to all federal, state and local government web resources and services.